BREEZE-M DEB (TANK), 40507

Orbit data source: Space-Track

BREEZE-M DEB (TANK), 40507 is space debris in HEO originally from a launch on Wed, 18 Mar 2015 UTC launched from the Tyuratam Missile And Space Complex (TTMTR). Debris objects in space refer to the collection of defunct objects orbiting the Earth. Examples of debris include non-operational satellites, rocket bodies, and fragments generated from explosions, collisions, or faulty payload assembly.

Loading next visibility...
Identifier
40507, 2015-012C
Orbit
HEO
Country
Flag of CISCIS
Related business
Manufacturer
Khrunichev
Mission
Spacecraft
Bus & Motor
BRIZ TANK, Unknown motor
Mass
~1,000 kg wet, 1,000 kg dry
Launch date (UTC)
2015-03-18 (11 years ago)
Launch vehicle
Unknown
Launch site
Tyuratam Missile And Space Complex (TTMTR)
Object type
Payload
Rocket body
Debris
Shape & HBR
Torus, 2.0 m
Radar Cross Section
8.218 m², Large (>1 m²)

Expand to show TLE details & history
Last TLE update: 2 days ago

TLE from 2 days ago
0 BREEZE-M DEB (TANK)
1 40507U 15012C   26171.29908720  .00004062  00000-0  78682-3 0  9995
2 40507  49.4209 152.7902 5364545 297.3279  18.4968  5.01724418199471
Epoch: 2026-06-20T07:10Z
TLE epoch observation values (Epoch: 2026-06-20T07:10:41.134Z)
Latitude
-0.00018°
Longitude
136.59875°
Altitude
1,862.423 km
Speed
8.313 km/s
True Right ascension
10h 11m 08s
True Declination
0° 00' 01"
Sunlit
Object was in daylight at epoch
Visualization orbit readout
Latitude
Unknown
Longitude
Unknown
Altitude
Unknown
Speed
Unknown
Apparent Right ascension
Unknown
Apparent Declination
Unknown
Sunlit
N/A
Visualization observer readout
Local Sidereal Time
21:42:58
Azimuth
Unknown
Elevation
Unknown
Doppler factor
Unknown
Orbital elements
Apogee altitude
15,768.05 km
Perigee altitude
303.327 km
Semi-major axis
14,413.825 km
Eccentricity
0.53645
Inclination
49.4209°
RAAN
152.7902°
Arg. of periapsis
297.3279°
True anomaly
62.68234°
Mean anomaly
18.4968°
Eccentric anomaly
36.99044°
Mean motion
1.25422 °/min
Orbital period
287.03 mins
BSTAR
0.00078682
Loading maneuver chart data...
Computing Atmospheric mass density...
Loading historical data...
Loading historical data...
Loading historical data...
Loading historical data...
Loading historical data...
Loading historical data...
Loading historical data...
Other satellites on launch #12 in the year 2015 (2015-03-18 UTC)

Documentation

Showing up to 5 results
|